カタログに戻る

HAIYANG 1

運用中科学SSO
NORAD 27430·PAYLOAD·🇨🇳 China

打ち上げ May 15, 2002 から Taiyuan Satellite Launch Center

Loading…

次のパス (今後24時間)

TLE

最新Source: Space-Track

元期: Sep 14, 2026, 07:30 UTC

1 27430U 02024A   26257.31287902  .00000195  00000-0  87361-4 0  9992
2 27430  98.7397 220.1138 0008726 168.3480 191.7907 14.33193468270590

AllMySatでHAIYANG 1をリアルタイム追跡

Download on the App Store